Weather History for Salisbury, MD

Change the Weather History Date:

Monday, March 10, 2014

  Actual Average Record
Temperature  
Mean Temperature 46 °F 43 °F  
Max Temperature 58 °F 53 °F 77 °F (2006)
Min Temperature 33 °F 33 °F 16 °F (1996)
Degree Days  
Heating Degree Days 19 22  
Month to date heating degree days 271 234  
Since 1 July heating degree days 3411 3539  
Cooling Degree Days 0 0  
Month to date cooling degree days 0 0  
Year to date cooling degree days 0 0  
Moisture  
Dew Point 31 °F    
Average Humidity 58    
Maximum Humidity 76    
Minimum Humidity 39    
Precipitation  
Precipitation T in 0.13 in 1.57 in (1994)
Month to date precipitation 0.63 1.35  
Year to date precipitation 4.61 8.31  
Snow  
Snow 0.00 in 0.10 in 5.00 in (1960)
Month to date snowfall 2.0 0.5  
Since 1 July snowfall 13.5 8.8  
Snow Depth 0.00 in    
Sea Level Pressure  
Sea Level Pressure 29.86 in    
Wind  
Wind Speed 6 mph (SW)    
Max Wind Speed 14 mph    
Max Gust Speed 18 mph    
Visibility 10 miles    
Events Rain    
T = Trace of Precipitation, MM = Missing Value Source: NWS Daily Summary

Daily Weather History Graph

Daily Weather History Graph

Search for Another Location

Airport:

Trip Planner

Search our weather history database for the weather conditions in past years. The results will help you decide how hot, cold, wet, or windy it might be!

Date:

Astronomy

Mar. 10, 2014 Rise Set
Actual Time 7:20 AM EDT 7:04 PM EDT
Civil Twilight 6:54 AM EDT 7:30 PM EDT
Nautical Twilight 6:23 AM EDT 8:01 PM EDT
Astronomical Twilight 5:53 AM EDT 8:32 PM EDT
Moon 1:49 PM EDT (3/10) 3:27 AM EDT (3/10)
Length of Visible Light 12h 36m
Length of Day
11h 43m
Waxing Gibbous, 70% of the Moon is Illuminated
Mar 10
Waxing Gibbous
Mar 16
Full
Mar 23
Last Quarter
Mar 30
New
Apr 7
First Quarter

Hourly Weather History & Observations

Time (EDT) Temp. Windchill Dew Point Humidity Pressure Visibility Wind Dir Wind Speed Gust Speed Precip Events Conditions
12:54 AM 36.0 °F - 26.1 °F 67% 30.04 in 10.0 mi Calm Calm - N/A   Scattered Clouds
1:54 AM 34.0 °F - 25.0 °F 70% 30.02 in 10.0 mi Calm Calm - N/A   Clear
2:54 AM 34.0 °F - 25.0 °F 70% 30.00 in 10.0 mi Calm Calm - N/A   Clear
3:54 AM 34.0 °F - 26.1 °F 73% 29.96 in 10.0 mi Calm Calm - N/A   Clear
4:54 AM 37.0 °F 32.4 °F 28.9 °F 73% 29.95 in 10.0 mi SSW 5.8 mph - N/A   Clear
5:54 AM 37.0 °F 33.3 °F 30.0 °F 76% 29.96 in 9.0 mi SSW 4.6 mph - N/A   Clear
6:54 AM 37.0 °F 34.5 °F 30.9 °F 79% 29.94 in 8.0 mi SSW 3.5 mph - N/A   Clear
7:54 AM 39.0 °F 36.8 °F 32.0 °F 76% 29.94 in 7.0 mi SSW 3.5 mph - N/A   Clear
8:54 AM 43.0 °F 38.2 °F 32.0 °F 65% 29.93 in 10.0 mi SSW 8.1 mph - N/A   Clear
9:54 AM 46.0 °F 41.4 °F 30.9 °F 56% 29.93 in 10.0 mi SSW 9.2 mph - N/A   Clear
10:54 AM 50.0 °F - 32.0 °F 50% 29.91 in 10.0 mi SW 8.1 mph - N/A   Clear
11:54 AM 52.0 °F - 33.1 °F 49% 29.89 in 10.0 mi WSW 8.1 mph - N/A   Mostly Cloudy
12:54 PM 54.0 °F - 32.0 °F 43% 29.87 in 10.0 mi WSW 8.1 mph - N/A   Overcast
1:54 PM 53.1 °F - 32.0 °F 45% 29.84 in 10.0 mi WSW 6.9 mph - N/A   Overcast
2:54 PM 50.0 °F - 37.0 °F 61% 29.82 in 5.0 mi WSW 6.9 mph - 0.00 in Rain Light Rain
3:54 PM 53.1 °F - 36.0 °F 52% 29.79 in 10.0 mi WSW 8.1 mph - 0.00 in   Partly Cloudy
4:54 PM 55.9 °F - 34.0 °F 44% 29.78 in 10.0 mi WSW 12.7 mph 18.4 mph N/A   Clear
5:54 PM 57.9 °F - 32.0 °F 37% 29.75 in 10.0 mi SW 5.8 mph - N/A   Clear
6:54 PM 53.1 °F - 30.0 °F 41% 29.73 in 10.0 mi South 6.9 mph - N/A   Clear
7:54 PM 50.0 °F - 32.0 °F 50% 29.73 in 10.0 mi South 4.6 mph - N/A   Clear
8:54 PM 48.0 °F - 30.9 °F 52% 29.74 in 10.0 mi South 4.6 mph - N/A   Clear
9:54 PM 46.9 °F - 32.0 °F 56% 29.73 in 10.0 mi SSW 6.9 mph - N/A   Clear
10:54 PM 48.0 °F - 33.1 °F 56% 29.71 in 10.0 mi SSW 9.2 mph - N/A   Clear
11:54 PM 46.0 °F 41.9 °F 32.0 °F 58% 29.70 in 10.0 mi SSW 8.1 mph - N/A   Clear